DW5321 Paradera AW current weather conditions

sailwx.info

Wind from 081 at 6 knots gusting 11

Air temperature 26.7° C
Dewpoint 23.7° C

Last reported at 2014-Nov-29 08:36 UTC.
Time now 2014-Nov-29 09:53 UTC

Location: N 12°33' W 070°00'.
View on Google Maps.

See reports from other nearby stations

  
Tides and Currents Weather Stations Pressure Air Temp Water Temp Dewpoint Dewpoint Depression Visibility Wind Speed Wind Dir Waves Ship Positions
date/time (UTC)wind fromknots sea level pressurealtimeterstation pressurevisibilityair tempwater tempwave heightnotes
2014-Nov-29 08:36 081 6 gusting 11 26.7
2014-Nov-29 08:22 061 7 gusting 13 26.7
2014-Nov-29 08:06 098 6 gusting 14 26.7
2014-Nov-29 07:51 077 7 gusting 13 27.2
2014-Nov-29 07:35 079 4 gusting 10 26.7
2014-Nov-29 07:20 101 6 gusting 11 27.2
2014-Nov-29 07:05 120 5 gusting 9 26.7
2014-Nov-29 06:50 081 6 gusting 12 26.7
2014-Nov-29 06:35 075 6 gusting 10 26.7
2014-Nov-29 06:20 088 5 gusting 12 26.7
2014-Nov-29 06:05 065 5 gusting 13 27.2
2014-Nov-29 05:50 089 7 gusting 13 27.2
2014-Nov-29 05:35 100 4 gusting 10 27.2
2014-Nov-29 05:20 060 4 gusting 11 27.2
2014-Nov-29 05:05 085 6 gusting 12 27.2
2014-Nov-29 04:50 075 5 gusting 9 27.2
2014-Nov-29 04:35 090 4 gusting 10 27.2
2014-Nov-29 04:20 082 6 gusting 13 27.2
2014-Nov-29 04:05 079 6 gusting 12 27.2
2014-Nov-29 03:50 080 8 gusting 13 27.2
2014-Nov-29 03:35 072 5 gusting 13 27.2
2014-Nov-29 03:20 117 5 gusting 11 27.2
2014-Nov-29 03:05 080 5 gusting 10 27.2
2014-Nov-29 02:50 074 5 gusting 10 27.2
2014-Nov-29 02:35 079 7 gusting 11 27.2
2014-Nov-29 02:23 101 8 gusting 11 27.2
2014-Nov-29 02:05 082 6 gusting 12 27.2
2014-Nov-29 01:50 101 6 gusting 11 27.2
2014-Nov-29 01:35 096 6 gusting 10 27.2
2014-Nov-29 01:20 051 6 gusting 12 27.2
2014-Nov-29 01:05 066 4 gusting 11 27.2
2014-Nov-29 00:50 070 6 gusting 11 27.2
2014-Nov-29 00:35 096 5 gusting 13 27.2
2014-Nov-29 00:20 110 6 gusting 13 27.2
2014-Nov-29 00:05 096 5 gusting 12 27.2
2014-Nov-28 23:50 080 6 gusting 10 27.2
2014-Nov-28 23:20 120 6 gusting 12 27.2
2014-Nov-28 23:05 070 6 gusting 12 27.2
2014-Nov-28 22:50 117 7 gusting 12 27.2
2014-Nov-28 22:46 072 7 gusting 12 27.2
2014-Nov-28 17:34 077 7 gusting 16 29.4
2014-Nov-28 03:18 060 3 gusting 9 27.2
2014-Nov-28 03:03 075 5 gusting 8 27.2
2014-Nov-28 02:48 083 4 gusting 10 27.2
2014-Nov-28 02:33 070 6 gusting 11 27.2
2014-Nov-28 02:18 071 4 gusting 9 27.2
2014-Nov-28 02:03 079 4 gusting 8 27.2
2014-Nov-28 01:48 084 4 gusting 10 27.2
2014-Nov-28 01:33 096 5 gusting 9 27.2
2014-Nov-28 01:18 068 6 gusting 10 27.2
2014-Nov-28 01:03 070 5 gusting 11 27.2
2014-Nov-28 00:48 077 6 gusting 10 27.2
2014-Nov-28 00:33 093 5 gusting 8 27.2
2014-Nov-28 00:18 088 6 gusting 10 27.2
2014-Nov-28 00:03 079 6 gusting 9 27.2
2014-Nov-27 23:48 072 4 gusting 9 27.2
2014-Nov-27 23:33 068 6 gusting 10 27.2
2014-Nov-27 23:18 080 4 gusting 9 27.2
2014-Nov-27 23:03 120 6 gusting 11 27.2
2014-Nov-27 22:48 047 6 gusting 11 27.2
2014-Nov-27 22:33 077 6 gusting 9 27.2
2014-Nov-27 22:18 105 4 gusting 7 27.8
2014-Nov-27 22:03 093 5 gusting 11 27.8
2014-Nov-27 21:48 089 6 gusting 13 27.8
2014-Nov-27 21:33 111 6 gusting 13 28.3
2014-Nov-27 21:18 086 8 gusting 12 28.3
2014-Nov-27 21:03 077 7 gusting 13 28.3
2014-Nov-27 20:48 114 5 gusting 13 28.9
2014-Nov-27 20:33 057 6 gusting 15 28.9
2014-Nov-27 20:18 054 6 gusting 12 29.4
2014-Nov-27 20:03 091 6 gusting 12 29.4
2014-Nov-27 19:48 079 6 gusting 11 29.4
2014-Nov-27 19:33 065 6 gusting 12 29.4
2014-Nov-27 19:18 117 6 gusting 10 29.4
2014-Nov-27 19:03 090 7 gusting 13 29.4
2014-Nov-27 18:48 088 8 gusting 14 29.4
2014-Nov-27 18:33 058 6 gusting 13 30.0
2014-Nov-27 18:18 099 7 gusting 13 30.0
2014-Nov-27 18:03 072 6 gusting 13 30.0
2014-Nov-27 17:48 117 9 gusting 16 29.4
2014-Nov-27 17:33 068 10 gusting 16 29.4
2014-Nov-27 17:18 107 8 gusting 14 29.4
2014-Nov-27 17:03 091 9 gusting 14 29.4
2014-Nov-27 16:48 101 8 gusting 13 29.4
2014-Nov-27 16:33 094 7 gusting 13 29.4
2014-Nov-27 16:18 079 7 gusting 13 29.4
2014-Nov-27 16:03 108 8 gusting 14 29.4
2014-Nov-27 15:48 111 8 gusting 15 29.4
2014-Nov-27 15:33 077 6 gusting 19 29.4
2014-Nov-27 15:17 088 6 gusting 13 28.9
2014-Nov-27 15:02 079 7 gusting 14 28.9
2014-Nov-27 14:47 099 6 gusting 11 28.3
2014-Nov-27 14:32 068 6 gusting 13 28.9
2014-Nov-27 14:17 087 9 gusting 14 28.9
2014-Nov-27 14:02 078 7 gusting 16 28.9
2014-Nov-27 13:47 088 8 gusting 16 28.9
2014-Nov-27 13:32 101 5 gusting 15 28.9
2014-Nov-27 13:17 079 5 gusting 13 28.3
2014-Nov-27 13:02 075 5 gusting 11 27.8
2014-Nov-27 12:47 099 4 gusting 12 27.8
2014-Nov-27 12:32 099 5 gusting 11 27.8
2014-Nov-27 12:17 070 5 gusting 9 27.8
2014-Nov-27 12:02 094 4 gusting 8 26.7
2014-Nov-27 11:47 088 5 gusting 10 25.6
2014-Nov-27 11:32 093 6 gusting 9 24.4
2014-Nov-27 11:17 110 3 gusting 6 24.4
2014-Nov-27 11:02 113 2 gusting 4 23.9
2014-Nov-27 10:47 101 5 gusting 9 23.9
2014-Nov-27 10:32 076 4 gusting 9 24.4
2014-Nov-27 10:18 095 2 gusting 4 24.4
2014-Nov-27 10:02 112 1 gusting 6 23.9
2014-Nov-27 09:47 103 9 gusting 13 23.9
2014-Nov-27 09:32 127 1 gusting 16 25.0
2014-Nov-27 09:17 095 3 gusting 6 26.1
2014-Nov-27 09:02 099 2 gusting 6 26.1